Location: Bubenhausen
(48.2768°N, 10.1646°E)
Time: 13:48:44
(UTC+00:00)

Daily predictions for brighter satellites

Satellite Brightness Start Highest point End
(mag) Time Altitude Azimuth Time Altitude Azimuth Time Altitude Azimuth
Cosmos 1315 Rocket 2.8 15:55:54 10° S 15:59:38 55° E 16:03:24 10° NNE
Cosmos 292 Rocket 4.1 15:57:52 10° SSW 16:02:39 71° WNW 16:07:28 10° NNE
CENTAUR R/B 2.6 15:59:54 10° SW 16:05:30 83° NW 16:12:40 10° NE
NOSS 2-2 (D) 4.0 16:02:50 10° S 16:05:50 28° SE 16:08:31 10° ENE
Cosmos 1782 3.6 16:04:36 10° SSE 16:07:39 26° E 16:10:43 10° NNE
Cosmos 2263 Rocket 3.8 16:04:56 10° N 16:08:12 15° NE 16:11:29 10° ENE
YAOGAN 1 4.3 16:06:57 10° ENE 16:08:27 12° ENE 16:09:57 10° NE
Cosmos 1607 4.3 16:07:40 10° NNW 16:13:36 44° NE 16:19:34 10° ESE
Cosmos 1356 Rocket 3.3 16:10:27 10° S 16:14:28 79° E 16:18:34 10° NNE
SL-16 R/B 2.6 16:08:13 10° NNE 16:14:29 82° ESE 16:20:42 10° SSW
NOSS 2-2 (E) 4.0 16:11:58 10° S 16:14:57 27° SE 16:17:21 12° ENE
Cosmos 405 Rocket 2.4 16:12:01 10° N 16:15:13 50° ENE 16:18:23 10° SSE
Cosmos 1733 2.8 16:13:46 10° NNE 16:15:20 21° ENE 16:16:54 10° SE
CORIOLIS 4.2 16:12:05 10° SSE 16:17:20 61° ENE 16:22:36 10° N
Cosmos 2227 Rocket 3.2 16:13:15 10° N 16:17:47 24° NE 16:22:18 10° E
SJ-12 4.3 16:17:13 10° SE 16:20:39 34° ENE 16:24:07 10° N
Cosmos 2369 Rocket 3.7 16:17:21 10° WSW 16:22:19 31° NW 16:27:20 10° NNE
Cosmos 773 Rocket 4.1 16:17:49 10° NNW 16:22:56 54° ENE 16:28:04 10° SE
USA 215 3.9 16:17:08 10° ENE 16:23:12 42° N 16:29:16 10° WNW
Cosmos 2228 2.9 16:22:29 10° S 16:26:43 88° E 16:30:59 10° N
ARIANE 5 R/B 2.6 16:23:23 10° SE 16:28:17 56° ENE 16:33:18 10° N
Cosmos 1758 Rocket 3.5 16:24:58 10° N 16:29:16 60° ENE 16:33:30 10° SSE
Intercosmos 24 3.6 16:25:42 10° N 16:29:48 77° E 16:33:20 10° SSE
Cosmos 2208 Rocket 3.9 16:25:39 10° NNW 16:30:47 63° ENE 16:35:55 10° SE
SPOT 1/Viking Rocket 4.3 16:26:48 10° SE 16:31:18 31° ENE 16:35:50 10° N
BREEZE M DEB (TANK) 3.9 16:15:53 10° WNW 16:31:30 82° SSW 16:35:32 10° ESE
Cosmos 2098 Rocket 3.2 16:28:24 10° SSE 16:32:06 46° E 16:36:29 10° NNE
GEOS 3 Rocket 3.8 16:29:31 10° NE 16:34:56 81° NW 16:40:18 10° SW
Cosmos 1697 Rocket 3.8 16:33:11 10° SSE 16:37:26 23° ESE 16:40:11 16° ENE
AQUARIUS 4.2 16:38:24 10° SSE 16:42:41 54° ENE 16:47:00 10° N
Meteor 1-20 Rocket 4.3 16:37:33 10° N 16:42:53 51° ENE 16:48:12 10° SSE
USA 290 2.4 16:44:29 10° NNW 16:47:39 47° ENE 16:50:49 10° SE
IRS-1C 4.1 16:44:33 10° SSE 16:49:53 83° ENE 16:55:14 10° NNW
SL-08 ROCKET BODY 4.4 16:44:42 10° N 16:50:40 89° W 16:56:41 10° S
BREEZE-M DEB (TANK) 3.7 16:50:34 10° WNW 16:53:33 55° N 16:59:05 19° ENE
Cosmos 1626 Rocket 3.9 16:49:18 10° NNW 16:53:36 66° W 16:57:52 10° S
SMAP 3.4 16:49:42 10° S 16:54:20 70° WSW 16:59:00 10° NNW
NOSS 2-2 (C) 3.7 16:51:22 10° WSW 16:54:25 41° NW 16:56:14 19° NNE
CZ-2D R/B 2.6 16:51:42 10° SSE 16:54:50 88° ENE 16:57:59 10° NNW
Thor Agena Rocket 4.4 16:54:05 10° S 16:59:11 54° W 17:04:17 10° NNW
NOSS 3-2 (C) 3.4 16:54:34 10° SSW 16:59:18 46° ESE 17:02:36 22° ENE
Landsat 7 3.9 16:55:50 10° S 17:00:29 79° WSW 17:05:10 10° NNW
NOSS 3-2 (A) 3.2 16:55:53 10° SW 17:00:55 78° NW 17:05:38 17° NE
Cosmos 1606 Rocket 4.0 16:58:10 10° SSE 17:02:15 39° E 17:04:46 20° NE
Cosmos 2151 2.8 16:58:11 10° N 17:02:20 79° ENE 17:06:30 10° SSE
Cosmos 1241 Rocket 4.5 16:56:01 10° SW 17:02:25 90° WNW 17:07:34 16° NE
Cosmos 1655 Rocket 4.3 16:56:54 10° N 17:02:48 42° ENE 17:08:38 10° SE
BlueWalker 3 2.4 17:02:10 10° WNW 17:05:43 54° SW 17:08:45 13° SE
Cosmos 1743 2.6 17:03:44 10° NNW 17:06:59 68° W 17:10:12 10° S
ATLAS CENTAUR R/B 0.9 17:05:10 10° NW 17:08:24 68° SW 17:11:32 10° SSE
UNK 4.2 17:04:01 10° N 17:08:33 60° WNW 17:13:02 10° SSW
Cosmos 1076 Rocket 4.1 17:04:44 10° N 17:08:37 32° ENE 17:12:29 10° SE
Resurs 1-3 3.9 17:05:56 10° SE 17:09:54 39° ENE 17:13:55 10° N
Okean 1-7 Rocket 3.4 17:05:59 10° N 17:10:24 69° E 17:14:45 10° SSE
Lacrosse 4 Rocket 3.4 17:07:54 10° W 17:11:06 22° NW 17:14:13 10° N
Cosmos 1544 Rocket 4.2 17:06:51 10° SSW 17:11:10 57° WNW 17:15:32 10° N
Cosmos 2297 Rocket 2.2 17:05:49 10° NNW 17:11:31 83° WSW 17:17:10 10° SSE
Meteor 1-25 Rocket 4.2 17:07:09 10° N 17:13:00 70° ENE 17:18:46 10° SSE
Cosmos 1656 3.8 17:07:57 10° SSW 17:13:34 76° WNW 17:18:29 14° NNE
Cosmos 1503 Rocket 4.0 17:09:36 10° S 17:14:48 64° ESE 17:18:11 22° NNE
Cosmos 1461 3.1 17:11:08 10° SSW 17:14:48 43° ESE 17:15:26 39° E
IRIDIUM 104 4.4 17:12:22 10° N 17:17:37 79° W 17:22:49 10° S
Cosmos 1354 Rocket 4.1 17:16:35 10° S 17:21:41 52° ESE 17:23:56 31° NE
SAR-Lupe-3 4.3 17:23:19 52° SSW 17:23:19 52° SSW 17:25:19 10° SSW
Cosmos 2219 4.0 17:20:08 10° NNW 17:25:07 30° NE 17:25:09 30° NE
SKYMED 2 3.5 17:23:07 27° NNE 17:25:22 64° ESE 17:29:40 10° S
Spot 4 Rocket 3.9 17:20:34 10° SSE 17:25:36 63° ENE 17:30:40 10° N
Lacrosse 5 rocket 2.3 17:24:25 10° W 17:27:45 29° NNW 17:28:28 27° N
Meteor 1-5 Rocket 4.0 17:22:38 10° N 17:27:55 60° ENE 17:33:15 10° SSE
Cosmos 1726 Rocket 3.7 17:24:19 10° S 17:28:51 55° E 17:30:23 37° NE
COSMO-SKYMED 1 2.7 17:29:12 45° ESE 17:29:12 45° ESE 17:32:55 10° S
PSLV R/B 3.4 17:28:53 52° E 17:29:07 53° ENE 17:33:04 10° N
MOS 1 Rocket 3.9 17:25:26 10° S 17:30:10 61° W 17:35:14 10° NNW
CZ-4 R/B 4.3 17:26:38 10° SSE 17:30:35 82° W 17:34:33 10° NNW
Cosmos 1602 Rocket 4.4 17:27:08 10° NNW 17:31:24 50° W 17:35:37 10° SSW
SL-19 R/B 4.1 17:29:08 10° SSE 17:34:24 66° ENE 17:39:57 10° N
Cosmos 2084 Rocket 3.2 17:32:30 10° NW 17:36:45 88° NE 17:37:51 48° SE
CZ-4C R/B 3.0 17:29:54 10° NW 17:36:52 88° SW 17:45:33 10° SE
Cosmos 1777 Rocket 4.1 17:31:38 10° SSW 17:36:54 75° WNW 17:40:21 22° NNE
CZ-2D R/B 3.4 17:34:07 10° SSE 17:38:20 88° W 17:42:32 10° NNW
Cosmos 1980 Rocket 3.1 17:33:56 10° SSE 17:37:44 29° SE 17:37:44 29° SE
Cosmos 1867 3.5 17:35:18 10° NW 17:40:47 86° NE 17:44:00 26° SE
YAOGAN 1 2.4 17:39:21 10° SSE 17:43:36 86° ENE 17:47:54 10° NNW
Cosmos 1900 4.3 17:39:25 10° NW 17:44:29 83° WSW 17:47:17 26° SSE
Cosmos 2263 Rocket 2.2 17:47:45 10° NNW 17:53:23 59° ENE 17:53:46 57° ENE
Cosmos 1953 Rocket 3.4 17:49:06 10° N 17:53:34 83° E 17:58:00 10° S
CENTAUR R/B 3.9 17:51:41 10° W 17:57:13 31° NNW 18:00:51 21° NNE
Cosmos 1933 4.2 17:55:03 10° SSW 17:58:44 45° WNW 17:59:50 35° NNW
USA 238 DEB 3.9 17:53:12 10° S 17:58:22 42° SE 17:58:22 42° SE
USA 238 3.9 17:53:19 10° S 17:58:26 41° SE 17:58:26 41° SE
USA 81 3.9 17:54:56 10° N 18:00:14 79° E 18:05:30 10° S
Cosmos 2227 Rocket 2.3 17:56:47 10° NNW 18:02:27 76° WSW 18:06:42 18° SSE
USA 215 3.4 18:04:26 50° NE 18:05:34 56° NNE 18:11:56 10° NW
NOAA 6 4.0 18:04:06 10° SSE 18:09:13 81° WSW 18:14:22 10° NNW
BREEZE-M DEB (TANK) 4.2 18:02:54 10° SSW 18:09:02 34° SSE 18:09:02 34° SSE
USA 281 4.4 18:11:46 25° NNE 18:11:46 25° NNE 18:15:19 10° NNW
Cosmos 990 Rocket 4.2 18:14:28 10° SW 18:19:33 64° WNW 18:20:06 59° NNW
Cosmos 1697 Rocket 2.9 18:15:19 10° SW 18:20:52 65° WNW 18:21:56 53° N
NOSS 3-2 (C) 4.2 18:45:12 10° WSW 18:50:02 41° NW 18:50:02 41° NW
Cosmos 1980 Rocket 4.0 19:17:08 10° SW 19:19:32 25° WSW 19:19:32 25° WSW
Cosmos 2263 Rocket 4.3 19:32:19 10° NW 19:35:30 23° W 19:35:30 23° W
